Tracking 35275 objects as of 8-Sep-2026
HD Live streaming from Space Station
objects crossing your sky now

STARLINK-5598

Track STARLINK-5598 now!
10-day predictions
STARLINK-5598 is classified as:


NORAD ID: 55421
Int'l Code: 2023-014AG
Launch date: January 31, 2023
Source: United States (US)
Launch site: AIR FORCE WESTERN TEST RANGE (AFWTR)
Your satellite tracking list
Your tracking list is empty




NASA's NSSDC Master Catalog

Two Line Element Set (TLE):
1 55421U 23014AG  26250.68459790  .00000000  00000-0  78036-5 0  9999
2 55421  70.0005 345.5706 0003270 269.5958  90.4826 14.98330093198824
Source of the keplerian elements: AFSPC